Zurück zum Katalog

STARLINK-11569

AktivKommunikationVLEO
NORAD 62910·PAYLOAD·🇺🇸 United States

Gestartet Feb 8, 2025 von Cape Canaveral Space Force Station

Loading…

Nächste Überflüge (nächste 24 Stunden)

TLE

AktuellSource: CelesTrak SupGP

Epoche: Sep 15, 2026, 03:03 UTC

1 62910C 25027D   26258.12756944  .00057405  00000+0  44563-3 0  2588
2 62910  43.0004 285.6790 0001517 250.6004 233.8625 15.70822589    16

Verfolge STARLINK-11569 in Echtzeit mit AllMySat

Download on the App Store